World > North America > United States > Mississippi > Olive Branch   City of Olive Branch, Mississippi

Olive Branch, MS Hourly Weather Updates

Feedback E-mail the Weather

Quick Clicks

Olive Branch, MS Weather Maps

°F °C°F °C
Olive Branch Weather Map
UTC Time: 5/21/2024, 22:37
Your Time:

Olive Branch, MS Regional Weather

Expires:202405212300;;623382
ASUS44 KJAN 212210
RWRMS 

MISSISSIPPI HOURLY WEATHER ROUNDUP
NATIONAL WEATHER SERVICE JACKSON MS
500 PM CDT TUE MAY 21 2024

NOTE: "FAIR: INDICATES FEW OR NO CLOUDS BELOW 12,000 FEET WITH NO
SIGNIFICANT WEATHER AND/OR OBSTRUCTIONS TO VISIBILITY.


MSZ001>002-007>008-010>013-018>021-025>028-034>036-212300-
NORTHWEST MISSISSIPPI
  
CITY           SKY/WX    TMP DP  RH WIND       PRES   REMARKS
BATESVILLE     MOSUNNY   90  66  45 S13       29.86R HX  92           
CLARKSDALE       N/A     88  88 100 S14G21    29.85S HX 120           
GREENWOOD      MOSUNNY   89  68  49 S17       29.87F HX  93           
GREENVILLE     SUNNY     91  68  46 S16G26    29.85F HX  95           
OLIVE BRANCH   MOSUNNY   88  66  48 S16G22    29.85F HX  90           
OXFORD         MOSUNNY   84  64  51 S8G16     29.89S                  
TUNICA         PTSUNNY   87  69  54 S20G25    29.83F HX  91           
WINONA         MOSUNNY   85  65  52 S10       29.89S                  
$$


SKY/WX - Weather  TMP - Temperature  DP - Dew Point  RH - Humidity
WIND - Wind Direction/Speed PRES - Barometric Pressure VSB - Visibility
WCI - Wind Chill Index E13G22 Wind - East Wind 13 mph/Gusts of 22 mph

Trending Headlines

Trending Entertainment Headlines

Olive Branch Radar Loop

Use the map search tool if you want to place a location marker on the radar map...

Olive Branch Quick Facts

National Two Day Weather Forecast


E-mail the Olive Branch Weather Forecast

Voice your opinion or tell us about page issues...